Regional Weather Roundup
Issued by NWS

Home | Current Version | Previous Version | Graphics & Text | Print | Product List | Glossary On
Versions: 1 2 3 4 5 6 7 8 9 10 11 12 13 14 15 16 17 18 19 20 21 22 23 24 25 26 27 28 29 30 31 32 33 34 35 36 37 38 39 40 41 42 43 44 45 46 47 48 49 50
480
ASUS43 KMKX 230621
RWRWI

WISCONSIN REGIONAL WEATHER ROUNDUP
NATIONAL WEATHER SERVICE MILWAUKEE/SULLIVAN WI
100 AM CDT SUN JUL 23 2017

NOTE: "FAIR" INDICATES FEW OR NO CLOUDS BELOW 12,000 FEET WITH NO
SIGNIFICANT WEATHER AND/OR OBSTRUCTIONS TO VISIBILITY.

WIZ001-002-006>008-014>016-023>028-230700-
NORTHWEST WISCONSIN

CITY           SKY/WX    TMP DP  RH WIND       PRES   REMARKS
SUPERIOR ARPT  NOT AVBL
ASHLAND        CLOUDY    60  59  96 CALM      29.83F FOG
6HR MIN TEMP:  58; 6HR MAX TEMP:  70; 6HR PCP:  0.23;

HAYWARD        FOG       59  57  93 CALM      29.83F VSB 3/4
6HR MIN TEMP:  58; 6HR MAX TEMP:  80; 6HR PCP:  0.10;

SIREN          MOCLDY    64  56  73 CALM      29.83F
6HR MIN TEMP:  62; 6HR MAX TEMP:  83;

CUMBERLAND     CLEAR     63  55  77 CALM      29.84F
RICE LAKE      CLEAR     64  59  84 CALM      29.84F
6HR MIN TEMP:  65; 6HR MAX TEMP:  83;

CHETEK         CLEAR     67  59  76 CALM      29.83F
6HR MIN TEMP:  67; 6HR MAX TEMP:  83;

LADYSMITH      CLEAR     64  62  94 CALM      29.85S FOG
6HR MIN TEMP:  64; 6HR MAX TEMP:  80;

EAU CLAIRE     FOG       66  66 100 CALM      29.80F VSB 1/4
6HR MIN TEMP:  66; 6HR MAX TEMP:  75;

MENOMONIE      CLEAR     67  63  84 CALM      29.82F
6HR MIN TEMP:  67; 6HR MAX TEMP:  81;

NEW RICHMOND   CLEAR     63  62  96 CALM      29.84F
6HR MIN TEMP:  63; 6HR MAX TEMP:  83;

OSCEOLA        PTCLDY    64  64 100 CALM      29.87S
6HR MIN TEMP:  63; 6HR MAX TEMP:  84;

$$

WIZ003>005-009-010-017-018-230700-
NORTH CENTRAL WISCONSIN

CITY           SKY/WX    TMP DP  RH WIND       PRES   REMARKS
MANITOWISH WTR MOCLDY    63  63 100 CALM      29.82F
6HR MIN TEMP:  62; 6HR MAX TEMP:  77; 6HR PCP:  0.17;

ARBOR VITAE    PTCLDY    62  60  94 NW5       29.83F FOG
6HR MIN TEMP:  62; 6HR MAX TEMP:  78; 6HR PCP:  0.50;

WOODRUFF       PTCLDY    62  60  94 NW5       29.83F FOG
6HR MIN TEMP:  62; 6HR MAX TEMP:  78; 6HR PCP:  0.50;

RHINELANDER    MOCLDY    66  64  93 SW6       29.84R
6HR MIN TEMP:  59; 6HR MAX TEMP:  76;

EAGLE RIVER    LGT RAIN  66  65  98 CALM      29.82F
6HR MIN TEMP:  62; 6HR MAX TEMP:  79;

LAND O LAKES   LGT RAIN  65  64  98 CALM      29.85S
6HR MIN TEMP:  63; 6HR MAX TEMP:  78;

PHILLIPS       FOG       60  60 100 CALM      29.82F VSB 1/4
6HR MIN TEMP:  61; 6HR MAX TEMP:  75; 6HR PCP:  0.09;

TOMAHAWK         N/A     61  60  96 CALM      29.84S FOG
6HR MIN TEMP:  60; 6HR MAX TEMP:  81;

MEDFORD        CLEAR     65  63  94 W5        29.83F
6HR MIN TEMP:  65; 6HR MAX TEMP:  80;

MERRILL        MOCLDY    67  65  96 CALM      29.82F
6HR MIN TEMP:  65; 6HR MAX TEMP:  84;

$$

WIZ029-030-035-036-043>047-230700-
CENTRAL WISCONSIN

CITY           SKY/WX    TMP DP  RH WIND       PRES   REMARKS
WAUSAU         CLEAR     70  67  90 NW5       29.79F
6HR MIN TEMP:  70; 6HR MAX TEMP:  81;

MOSINEE        CLEAR     68  68 100 NW5       29.82F
MARSHFIELD     CLEAR     68  64  87 NW5       29.81F
6HR MIN TEMP:  67; 6HR MAX TEMP:  80;

STEVENS POINT  CLEAR     70  68  94 W3        29.81F
6HR MIN TEMP:  70; 6HR MAX TEMP:  82;

WAUPACA        CLEAR     73  71  93 W5        29.79S
6HR MIN TEMP:  73; 6HR MAX TEMP:  84;

WAUTOMA        PTCLDY    72  71  97 W6        29.80F
6HR MIN TEMP:  72; 6HR MAX TEMP:  83; 6HR PCP:  0.06;

WISC RAPIDS    CLEAR     70  67  90 W6        29.82F
6HR MIN TEMP:  69; 6HR MAX TEMP:  85; 6HR PCP: TRACE;

CAMP DOUGLAS   CLEAR     66  66 100 W3        29.81F
6HR MIN TEMP:  67; 6HR MAX TEMP:  82;

$$

WIZ011>013-019>022-031-037>040-048>050-230700-
NORTHEAST WISCONSIN

CITY           SKY/WX    TMP DP  RH WIND       PRES   REMARKS
ANTIGO         CLEAR     63  63 100 CALM      29.83S
6HR MIN TEMP:  63; 6HR MAX TEMP:  82;

SHAWANO        MOCLDY    70  68  93 CALM      29.78F
6HR MIN TEMP:  70; 6HR MAX TEMP:  83; 6HR PCP:  0.31;

OCONTO         PTCLDY    64  63  98 CALM      29.78F
6HR MIN TEMP:  64; 6HR MAX TEMP:  77; 6HR PCP:  0.49;

STURGEON BAY   NOT AVBL
GREEN BAY      CLOUDY    70  70 100 E5        29.78S
6HR MIN TEMP:  68; 6HR MAX TEMP:  81; 6HR PCP:  1.04;

MANITOWOC      TSTM      66  64  93 N3        29.81S
6HR MIN TEMP:  66; 6HR MAX TEMP:  74;

APPLETON       MOCLDY    70  68  94 E5        29.77F
CLINTONVILLE   MOCLDY    72  68  88 N6        29.78F
OSHKOSH        MOCLDY    72  70  93 SW3       29.77F
6HR MIN TEMP:  72; 6HR MAX TEMP:  77; 6HR PCP:  0.13;

$$

WIZ032>034-041-042-053>061-230700-
SOUTHWEST WISCONSIN

CITY           SKY/WX    TMP DP  RH WIND       PRES   REMARKS
LA CROSSE      CLEAR     70  68  93 CALM      29.83S
6HR MIN TEMP:  70; 6HR MAX TEMP:  85; 6HR PCP:  0.20;

SPARTA         CLEAR     63  63 100 CALM      29.84S
6HR MIN TEMP:  62; 6HR MAX TEMP:  81;

VIROQUA        CLEAR     67  67 100 W5        29.85S
6HR MIN TEMP:  67; 6HR MAX TEMP:  78; 6HR PCP:  0.15;

BOSCOBEL       LGT RAIN  74  69  85 W5        29.82R
6HR MIN TEMP:  73; 6HR MAX TEMP:  84; 6HR PCP: TRACE;

PRAIRIE DU CHI PTCLDY    74  70  87 CALM      29.84R
6HR MIN TEMP:  72; 6HR MAX TEMP:  82;

PLATTEVILLE    CLEAR     73  73 100 CALM      29.84R
6HR MIN TEMP:  73; 6HR MAX TEMP:  82;

$$

WIZ056-057-062-063-064-067-068-230700-
SOUTH CENTRAL WISCONSIN

CITY           SKY/WX    TMP DP  RH WIND       PRES   REMARKS
REEDSBURG      CLOUDY    70  70 100 CALM      29.81S
6HR MIN TEMP:  70; 6HR MAX TEMP:  80;

BARABOO/DELLS  CLOUDY    71  69  94 W5        29.82R
6HR MIN TEMP:  71; 6HR MAX TEMP:  82;

LONE ROCK      PTCLDY    71  70  96 W6        29.82R
6HR MIN TEMP:  71; 6HR MAX TEMP:  82;

MINERAL POINT  PTCLDY    72  72 100 CALM      29.85R
MADISON        CLEAR     70  69  97 S3        29.81S
6HR MIN TEMP:  69; 6HR MAX TEMP:  83;

MIDDLETON      CLEAR     68  68 100 CALM      29.83S
6HR MIN TEMP:  67; 6HR MAX TEMP:  82;

WATERTOWN      PTCLDY    67  67 100 CALM      29.80F
6HR MIN TEMP:  67; 6HR MAX TEMP:  80;

MONROE         MOCLDY    73  72  94 NW7       29.83R
JANESVILLE     PTCLDY    70  70 100 CALM      29.81R FOG
$$

WIZ051-052-058>065-066-070>072-230700-
SOUTHEAST WISCONSIN

CITY           SKY/WX    TMP DP  RH WIND       PRES   REMARKS
MILWAUKEE      PTCLDY    72  70  93 SW3       29.79F
6HR MIN TEMP:  72; 6HR MAX TEMP:  76;

WAUKESHA       CLEAR     68  66  94 CALM      29.83R
MILWAUKEE/TIMM PTCLDY    68  63  83 CALM      29.81R
RACINE         CLEAR     70  70 100 CALM      29.81S FOG
6HR MIN TEMP:  69; 6HR MAX TEMP:  75;

KENOSHA        CLEAR     70  68  93 SW5       29.79F
6HR MIN TEMP:  70; 6HR MAX TEMP:  77;

FOND DU LAC    MOCLDY    74  68  81 SW8       29.78F
6HR MIN TEMP:  72; 6HR MAX TEMP:  82;

SHEBOYGAN      TSTM      69  69 100 N10       29.80R FOG
6HR MIN TEMP:  67; 6HR MAX TEMP:  76; 6HR PCP: TRACE;

WEST BEND      MOCLDY    68  68 100 CALM      29.80F
JUNEAU         CLOUDY    71  68  92 CALM      29.82S
6HR MIN TEMP:  68; 6HR MAX TEMP:  79; 6HR PCP:  0.04;

$$

LSZ147-162-230700-
LAKE SUPERIOR

STATION/POSITION TIME  TEMP    WIND        PRES    WAVE
                       AIR SEA DIR/SP/G            HT/PER
                 (UTC) (F)     (DEG/KT/KT) (MB)    (FT/S)
W MID LAKE BUOY  0550   49 48   20/  4/  6 1009.8F   2/ 4
DEVILS ISLAND    0600   55      40/  6/  8 1010.2F
PORT WING        0511   57      50/  7/ 10 1010.8
SAXON HARBOR     0530   59     220/  3/  4 1009.8S
$$

LMZ867-665-643>646-230700-
LAKE MICHIGAN

STATION/POSITION TIME  TEMP    WIND        PRES    WAVE
                       AIR SEA DIR/SP/G            HT/PER
                 (UTC) (F)     (DEG/KT/KT) (MB)    (FT/S)
CHAMBERS ISLAND  0540   71     190/  4/ 10 1007.5F
S GREEN BAY BUOY 0600   67 73  120/  6/ 10 1008.4
N MID LAKE BUOY  0550   69



USA.gov is the U.S. government's official web portal to all federal, state and local government web resources and services.